Location: Launois
(49.6535°N, 4.5395°E)
Time: 12:49:28
(UTC+00:00)

Meteor 2-5 Rocket - Pass Details

Date: 23 May 2024
Orbit: 832 x 911 km, 81.2° (Epoch: 18 June)

Event Time Altitude Azimuth Distance (km) Brightness Sun altitude
Exits shadow 02:43:02 - 199° (SSW) 2,760 5.8 -8.7°
Reaches altitude 10° 02:43:31 10° 200° (SSW) 2,578 5.7 -8.6°
Maximum altitude 02:49:24 71° 284° (WNW) 966 3.9 -8.0°
Drops below altitude 10° 02:55:22 10° 9° (N) 2,611 7.1 -7.3°
Sets 02:57:52 0° 11° (NNE) 3,555 8.0 -7.0°
